Albany, GA

11:49 PM EDT on March 22, 2017 (GMT -0400)
Southwest Georgia Regional

Weather History for KABY - April, 2014

Change the Weather History Date:

Friday, April 25, 2014

  Actual Average Record
Temperature  
Mean Temperature 75 °F 69 °F  
Max Temperature 85 °F 82 °F 92 °F (1958)
Min Temperature 64 °F 56 °F 37 °F (1986)
Degree Days  
Heating Degree Days 0 1  
Month to date heating degree days 70 62  
Since 1 July heating degree days 1934 1831  
Cooling Degree Days 10 5  
Month to date cooling degree days 60 76  
Year to date cooling degree days 67 114  
Growing Degree Days 24 (Base 50)    
Moisture  
Dew Point 62 °F    
Average Humidity 67    
Maximum Humidity 93    
Minimum Humidity 40    
Precipitation  
Precipitation T in 0.09 in 1.40 in (2003)
Month to date precipitation 3.25  
Year to date precipitation 17.28  
Sea Level Pressure  
Sea Level Pressure 29.95 in    
Wind  
Wind Speed 6 mph (WSW)    
Max Wind Speed 17 mph    
Max Gust Speed 22 mph    
Visibility 9 miles    
Events      
T = Trace of Precipitation, MM = Missing Value Source: NWS Daily Summary

Daily Weather History Graph

Daily Weather History Graph

Search for Another Location

Airport or City:

Trip Planner

Search our weather history database for the weather conditions in past years. The results will help you decide how hot, cold, wet, or windy it might be!

Date:

Astronomy

Apr. 25, 2014 Rise Set
Actual Time 6:57 AM EDT 8:12 PM EDT
Civil Twilight 6:32 AM EDT 8:37 PM EDT
Nautical Twilight 6:01 AM EDT 9:08 PM EDT
Astronomical Twilight 5:30 AM EDT 9:39 PM EDT
Moon 4:29 AM EDT (4/25) 4:47 PM EDT (4/25)
Length of Visible Light 14h 05m
Length of Day
13h 14m
Waning Crescent, 15% of the Moon is Illuminated
Apr 25
Waning Crescent
Apr 29
New
May 6
First Quarter
May 14
Full
May 21
Last Quarter

Hourly Weather History & Observations

Time (EDT) Temp. Heat Index Dew Point Humidity Pressure Visibility Wind Dir Wind Speed Gust Speed Precip Events Conditions
12:53 AM 69.1 °F - 61.0 °F 75% 29.94 in 10.0 mi SSW 5.8 mph - N/A   Clear
1:53 AM 68.0 °F - 61.0 °F 78% 29.94 in 9.0 mi SW 8.1 mph - N/A   Clear
2:53 AM 66.9 °F - 62.1 °F 84% 29.94 in 8.0 mi West 10.4 mph - N/A   Mostly Cloudy
3:06 AM 66.2 °F - 62.6 °F 88% 29.95 in 8.0 mi West 6.9 mph - N/A   Scattered Clouds
3:19 AM 66.2 °F - 62.6 °F 88% 29.96 in 8.0 mi West 6.9 mph - N/A   Mostly Cloudy
3:27 AM 64.4 °F - 62.6 °F 94% 29.96 in 8.0 mi West 4.6 mph - N/A   Scattered Clouds
3:53 AM 64.9 °F - 62.1 °F 90% 29.96 in 7.0 mi SW 3.5 mph - N/A   Mostly Cloudy
4:23 AM 64.4 °F - 62.6 °F 94% 29.96 in 7.0 mi Calm Calm - N/A   Mostly Cloudy
4:53 AM 64.9 °F - 63.0 °F 93% 29.95 in 7.0 mi Calm Calm - N/A   Overcast
5:14 AM 64.4 °F - 62.6 °F 94% 29.94 in 6.0 mi South 5.8 mph - N/A   Mostly Cloudy
5:53 AM 64.9 °F - 63.0 °F 93% 29.94 in 7.0 mi SW 4.6 mph - N/A   Overcast
6:53 AM 66.0 °F - 63.0 °F 90% 29.96 in 7.0 mi South 4.6 mph - N/A   Overcast
7:53 AM 66.9 °F - 64.0 °F 90% 29.98 in 5.0 mi SSW 4.6 mph - N/A   Overcast
8:53 AM 69.1 °F - 64.0 °F 84% 29.98 in 5.0 mi SSW 8.1 mph - N/A   Haze
9:53 AM 70.0 °F - 64.9 °F 84% 29.98 in 7.0 mi SW 8.1 mph - N/A   Overcast
10:53 AM 71.1 °F - 64.9 °F 81% 29.99 in 9.0 mi WSW 10.4 mph - N/A   Overcast
11:53 AM 75.0 °F - 66.0 °F 73% 29.98 in 10.0 mi WSW 11.5 mph 17.3 mph N/A   Overcast
12:53 PM 73.9 °F - 66.0 °F 76% 29.97 in 10.0 mi West 11.5 mph 18.4 mph 0.00 in   Overcast
1:53 PM 78.1 °F - 66.0 °F 66% 29.96 in 10.0 mi West 9.2 mph 18.4 mph N/A   Mostly Cloudy
2:01 PM 78.8 °F - 66.2 °F 65% 29.96 in 10.0 mi West 9.2 mph - N/A   Mostly Cloudy
2:53 PM 79.0 °F - 64.9 °F 62% 29.94 in 10.0 mi WSW 5.8 mph 17.3 mph N/A   Mostly Cloudy
3:53 PM 84.0 °F 85.8 °F 64.9 °F 53% 29.92 in 10.0 mi WSW 12.7 mph 19.6 mph N/A   Scattered Clouds
4:53 PM 82.9 °F 84.0 °F 63.0 °F 51% 29.90 in 10.0 mi West 10.4 mph - N/A   Partly Cloudy
5:53 PM 84.0 °F 83.5 °F 57.9 °F 41% 29.90 in 10.0 mi West 10.4 mph - N/A   Clear
6:53 PM 82.9 °F 82.4 °F 57.0 °F 41% 29.90 in 10.0 mi West 9.2 mph - N/A   Clear
7:53 PM 80.1 °F 80.4 °F 57.0 °F 45% 29.90 in 10.0 mi WNW 4.6 mph - N/A   Clear
8:53 PM 72.0 °F - 59.0 °F 64% 29.92 in 10.0 mi Calm Calm - N/A   Clear
9:53 PM 69.1 °F - 60.1 °F 73% 29.94 in 10.0 mi Calm Calm - N/A   Clear
10:53 PM 66.9 °F - 59.0 °F 76% 29.95 in 10.0 mi Calm Calm - N/A   Clear
11:53 PM 64.0 °F - 57.9 °F 80% 29.96 in 10.0 mi Calm Calm - N/A   Clear